Voltar ao catálogo

STARLINK-35753

AtivoComunicaçõesVLEO
NORAD 66232·PAYLOAD·🇺🇸 United States

Lançado Oct 28, 2025 de Vandenberg Space Force Base

Loading…

Próximas Passagens (próximas 24 horas)

TLE

AtualizadoSource: CelesTrak SupGP

Época: Sep 15, 2026, 04:02 UTC

1 66232C 25244AC  26258.16854167 -.00024733  00000+0 -73091-3 0  2588
2 66232  53.1587  68.3732 0001169  91.8345 123.6829 15.34395383    12

Acompanhe STARLINK-35753 em tempo real com AllMySat

Download on the App Store